Location: Radomski Observatory
(40.2854°N, 79.5145°W)
Time: 01:29:50
(UTC-04:00)

Daily predictions for brighter satellites

Satellite Brightness Start Highest point End
(mag) Time Altitude Azimuth Time Altitude Azimuth Time Altitude Azimuth
Resurs 1-4 Rocket 4.2 03:38:48 10° NNE 03:40:25 20° NNE 03:40:25 20° NNE
Cosmos 2263 Rocket 3.0 04:08:41 48° ENE 04:08:41 48° ENE 04:13:01 10° NNE
ARIANE 5 R/B 4.4 04:12:50 10° N 04:14:37 22° N 04:14:37 22° N
CZ-4C R/B 4.4 04:22:58 15° NNW 04:22:58 15° NNW 04:26:09 10° N
ATLAS 3B R/B 3.8 04:21:56 30° SSE 04:24:43 41° ESE 04:31:22 10° NE
CZ-2D R/B 4.0 04:21:42 10° N 04:23:22 19° NNW 04:23:22 19° NNW
Atlas Centaur 2 3.5 04:33:33 30° SSE 04:33:33 30° SSE 04:37:11 10° ESE
ASTEX 1 3.8 04:31:03 10° NNE 04:35:32 61° ENE 04:35:32 61° ENE
Cosmos 2208 Rocket 4.1 04:35:31 10° NNW 04:40:48 73° ENE 04:46:00 10° SSE
CZ-3 R/B 4.0 04:33:13 32° SW 04:42:02 42° S 04:50:41 10° ESE
Cosmos 1932 4.4 04:47:39 68° W 04:48:11 71° WNW 04:54:46 10° NNE
Gbstr 26 Del rocket 4.4 04:47:25 38° WNW 04:50:54 83° SW 04:59:04 10° SE
Okean O Rocket 3.2 04:47:13 10° NNE 04:51:09 33° E 04:53:52 17° SSE
CZ-4B R/B 3.8 04:50:47 10° NNE 04:54:38 43° E 04:55:05 41° ESE
Cosmos 2266 Rocket 3.9 04:53:52 10° NNW 05:00:15 68° W 05:03:06 34° SSW
Meteor 1-12 Rocket 4.3 04:54:41 10° N 05:00:45 85° E 05:06:45 10° S
ADEOS II 2.0 04:58:06 10° NNE 05:03:24 89° ESE 05:05:00 47° SSW
DELTA 2 R/B (1) 3.4 05:03:49 66° WSW 05:04:28 74° SSW 05:10:02 10° ESE
Cosmos 1607 4.3 05:07:23 43° WNW 05:08:10 45° NW 05:14:17 10° NNE
Cosmos 332 Rocket 3.6 05:10:44 10° NNW 05:15:33 72° WSW 05:20:18 10° S
MOS 1-B 4.2 05:09:54 10° N 05:15:41 73° WNW 05:18:24 33° SSW
Intercosmos 25 Rocket 3.0 05:16:06 87° SE 05:16:08 88° ESE 05:19:23 10° N
PSLV R/B 3.4 05:13:09 10° NNE 05:17:22 83° E 05:18:48 41° S
Cosmos 371 Rocket 3.1 05:14:24 10° NNW 05:19:16 79° WSW 05:24:06 10° SSE
Resurs 1-4 Rocket 4.3 05:21:15 10° NW 05:21:30 10° NW 05:21:30 10° NW
Cosmos 1544 Rocket 3.4 05:21:44 10° NNW 05:26:03 66° W 05:30:21 10° S
Cosmos 1244 Rocket 4.5 05:20:14 10° N 05:26:37 89° ENE 05:33:00 10° S
Cosmos 1975 Rocket 4.4 05:29:11 25° NW 05:29:11 25° NW 05:31:42 10° NNW
Cosmos 468 Rocket 3.9 05:22:32 10° NNW 05:27:52 76° WSW 05:33:08 10° SSE
COSMOS 2406 4.2 05:23:25 10° NNW 05:29:01 49° ENE 05:34:36 10° SE
Cosmos 1455 Rocket 2.9 05:29:13 10° NNW 05:33:29 61° W 05:37:44 10° S
Abrixas rocket 4.1 05:34:19 19° NNW 05:34:54 20° N 05:37:23 10° NE
CZ-4B DEB 4.2 05:30:41 10° NNE 05:36:11 88° ESE 05:41:39 10° SSW
Cosmos 1486 Rocket 4.3 05:31:41 10° S 05:36:53 68° ESE 05:42:05 10° NNE
Cosmos 1666 2.5 05:33:39 10° N 05:37:26 75° W 05:41:13 10° S
Landsat 4 4.2 05:35:38 10° SSE 05:39:24 61° ENE 05:43:10 10° N
USA 238 DEB 3.7 05:36:36 21° SW 05:41:33 79° NW 05:48:35 10° NNE
USA 238 3.7 05:36:40 21° SW 05:41:40 79° NW 05:48:42 10° NNE
Cosmos 1844 Rocket 2.8 05:36:09 10° SSW 05:41:47 78° ESE 05:47:29 10° NNE
Lacrosse 4 Rocket 4.4 05:41:14 10° NNE 05:43:26 14° NE 05:45:37 10° ENE
Cosmos 1763 Rocket 3.6 05:38:09 10° NNW 05:43:29 85° ENE 05:48:49 10° SSE
Meteor 1-4 Rocket 2.6 05:45:14 10° NNW 05:48:36 48° W 05:51:57 10° S
BREEZE-M R/B 3.9 05:48:19 32° WSW 05:49:47 73° NNW 05:59:48 10° ENE
Meteor 1-31 Rocket 2.9 05:46:59 10° NNE 05:50:51 74° E 05:54:40 10° S
Cosmos 2263 Rocket 3.5 05:50:24 20° WNW 05:51:45 21° NW 05:56:04 10° N
Cosmos 1743 3.3 05:49:30 10° NNW 05:53:06 35° W 05:56:40 10° SSW
Cosmos 1536 Rocket 3.7 05:49:51 16° SSW 05:53:09 50° W 05:57:24 10° N
Okean-O 3.9 05:54:02 10° NNE 05:58:16 42° E 06:02:28 10° S
Meteor PRIRODA 3.5 05:55:20 10° N 05:59:01 70° WNW 06:02:43 10° SSW
Cosmos 304 Rocket 3.8 05:54:34 10° NNW 05:59:26 83° ENE 06:04:15 10° SSE
Meteor 1-23 Rocket 4.3 05:55:22 10° S 06:00:54 82° E 06:06:32 10° N
Okean 2 4.0 06:00:21 10° S 06:04:22 59° E 06:08:24 10° NNE
Meteor 1-28 Rocket 3.6 06:04:46 10° SSE 06:08:27 66° ENE 06:12:12 10° N
ATLAS 5 CENTAUR R/B 2.7 06:06:23 10° NNW 06:12:24 73° NE 06:18:58 10° SE
Cosmos 1745 Rocket 4.0 06:07:42 10° N 06:14:04 74° W 06:20:20 10° S
ATLAS 3B R/B 3.2 06:09:14 14° WSW 06:15:24 45° NW 06:22:11 10° NNE
Cosmos 1025 Rocket 3.0 06:11:35 10° S 06:15:51 89° W 06:20:09 10° N
USA 116 3.0 06:13:24 10° S 06:16:35 68° WSW 06:19:40 10° NNW
NOSS 3-2 (C) 3.6 06:12:26 10° SSW 06:18:19 77° ESE 06:24:50 10° NE
Cosmos 1553 Rocket 4.1 06:12:59 10° SSW 06:18:55 51° W 06:24:51 10° N
Abrixas 3.8 06:17:46 10° SSW 06:19:55 27° SE 06:22:05 10° E
Atlas Centaur 2 3.4 06:16:11 13° WSW 06:20:24 25° SSW 06:24:32 10° SE
Cosmos 2292 Rocket 4.2 06:17:41 10° N 06:22:40 81° W 06:29:22 10° S
Okean 1-7 Rocket 3.6 06:19:51 10° S 06:24:22 82° W 06:28:57 10° N
GEOS 3 Rocket 4.4 06:21:04 10° SE 06:26:07 57° NE 06:31:19 10° NNW
CZ-2C R/B 4.4 06:22:19 10° NE 06:26:25 31° E 06:30:35 10° SSE
ATLAS CENTAUR R/B 1.1 06:22:50 10° SSW 06:26:45 84° WNW 06:30:31 10° NNE
Okean O Rocket 2.9 06:24:00 10° NNW 06:27:19 22° WNW 06:30:38 10° WSW
CENTAUR R/B 4.3 06:23:30 10° S 06:28:41 33° ESE 06:34:25 10° NE
Cosmos 1844 3.9 06:27:09 10° SW 06:32:37 54° WNW 06:38:12 10° NNE
CZ-4B R/B 3.9 06:29:39 10° N 06:34:15 31° WNW 06:38:51 10° SW
Cosmos 389 Rocket 2.4 06:32:17 10° NNW 06:35:42 59° W 06:39:08 10° S
SL-27 R/B 3.8 06:33:51 10° N 06:37:19 44° ENE 06:40:43 10° SE
S3M 4.5 06:34:17 10° SW 06:40:06 39° WNW 06:46:01 10° N
Feng Yun 1-1 Rocket 4.2 06:35:30 10° N 06:40:52 69° WNW 06:46:17 10° SSW
ADEOS II 3.9 06:40:22 10° NW 06:42:20 12° WNW 06:44:18 10° W
COSMO-SKYMED 1 2.5 06:39:08 10° S 06:43:28 75° WSW 06:47:49 10° NNW
Cosmos 1503 Rocket 4.2 06:38:41 10° SSW 06:43:57 59° WNW 06:49:17 10° NNE
Cosmos 1354 Rocket 4.2 06:40:28 10° SSW 06:45:41 57° WNW 06:50:57 10° N
Cosmos 1271 Rocket 3.2 06:42:07 10° NNW 06:45:53 40° W 06:49:39 10° SSW
USA 215 3.8 06:40:43 10° ESE 06:47:08 62° NE 06:53:34 10° NW
